Wind_Speed
22 22 21 20 18 17 16 16 17 18 18 18 19 19 19 19 19 18 17 17 18 18 19 20 22 23 25 26 28 29 29 29 29 29 30 30 31 31 31 31 31 31
22 22 23 22 21 19 18 17 17 18 18 18 19 19 19 20 21 22 22 21 21 20 19 19 20 22 24 26 27 28 30 30 31 31 31 31 31 31 32 32 31 31
22 22 23 23 22 21 19 18 17 17 18 19 19 19 20 21 22 23 23 23 23 22 21 21 21 22 24 25 27 28 29 30 31 31 32 32 32 32 32 32 32 32
21 22 22 22 22 20 19 18 17 17 17 18 17 18 19 21 22 23 23 23 23 23 23 23 24 24 25 26 27 28 29 30 30 31 32 32 33 33 33 34 33 33
20 21 21 21 20 18 18 17 18 17 16 15 15 16 18 20 22 24 24 25 25 24 24 24 25 26 27 27 27 28 29 30 30 30 31 32 32 33 33 34 34 34
20 20 20 20 19 18 19 19 19 17 15 14 14 17 19 21 23 24 25 25 25 25 25 26 27 27 28 28 28 28 29 29 30 30 30 31 32 32 33 34 34 35
21 20 20 20 20 19 20 21 20 18 16 16 17 19 20 23 24 25 24 23 23 24 25 26 27 29 30 30 29 29 28 28 28 29 29 30 31 31 32 33 34 34
20 20 21 21 19 19 20 21 20 20 20 20 21 21 22 24 25 24 23 21 20 21 22 24 26 27 29 29 29 28 27 26 26 26 27 29 29 30 31 32 33 34
18 19 20 21 19 20 20 21 22 23 24 23 24 24 25 25 25 23 22 20 20 20 20 22 23 24 25 25 26 27 26 25 24 25 25 26 27 28 30 31 32 32
17 18 20 21 21 22 22 24 25 26 27 26 27 28 27 27 27 25 24 23 21 21 22 23 24 25 25 24 24 24 25 25 25 25 26 26 27 28 29 30 31 31
18 20 23 24 25 25 25 26 28 28 29 30 30 29 27 29 30 28 26 25 24 25 25 26 27 27 27 25 24 24 24 24 25 26 27 27 28 28 29 30 30 31
22 24 27 27 27 28 28 29 30 30 32 35 34 31 28 31 32 30 27 26 27 28 28 29 30 30 30 28 26 26 25 24 25 26 27 28 29 29 29 30 30 31
27 28 30 30 30 30 30 31 31 32 34 36 38 37 33 32 33 32 30 27 27 28 29 31 33 34 34 32 29 28 27 26 26 27 27 28 29 29 30 30 30 30
31 32 33 33 33 31 31 31 31 33 35 37 38 39 38 35 33 33 33 30 29 30 33 36 38 38 38 35 33 31 29 28 28 29 29 29 29 30 31 31 31 30
34 34 35 36 36 36 36 36 36 36 37 38 38 39 39 38 36 35 35 34 32 34 37 41 42 41 39 37 36 34 31 30 31 32 32 31 32 32 33 33 33 32
34 34 35 36 38 39 40 41 41 42 42 41 40 40 40 40 38 37 37 37 36 37 40 43 43 42 39 37 37 37 35 35 35 35 35 35 34 34 35 35 35 35
35 35 37 38 40 42 43 44 44 45 45 44 42 40 40 40 40 39 39 41 41 41 43 44 43 41 39 38 37 38 39 39 39 39 39 38 38 37 37 37 37 36
33 34 35 37 39 40 41 41 41 42 42 42 41 40 40 40 40 41 42 43 43 43 44 44 42 41 39 39 38 39 40 41 42 42 42 42 41 40 40 39 38 37
31 31 32 33 34 35 35 36 37 38 38 38 38 39 40 41 41 41 43 44 43 42 42 42 42 42 41 41 41 41 41 42 44 45 44 44 44 44 43 42 40 38
31 31 32 32 33 34 34 35 35 36 37 37 37 37 39 40 41 42 44 44 42 42 43 43 44 45 46 46 46 45 44 45 46 46 46 46 46 47 47 45 43 41
30 31 31 32 33 34 34 35 36 36 36 36 37 37 38 40 42 43 45 45 44 45 46 46 47 49 49 49 48 48 47 47 46 46 47 48 50 51 50 48 46 44
31 31 32 32 33 34 35 35 36 36 36 36 36 37 38 40 43 44 45 44 44 45 47 48 49 50 49 49 49 49 48 47 46 46 48 50 52 53 52 50 49 48
35 35 35 35 35 35 36 36 36 36 36 36 36 36 37 39 41 44 45 45 46 47 49 49 49 49 49 50 50 50 49 48 47 48 50 51 53 54 53 52 52 51
38 37 37 37 37 37 38 38 38 37 37 37 37 37 37 37 38 40 43 45 48 49 49 48 49 49 50 52 54 54 52 50 49 49 50 51 52 54 54 54 54 54
39 39 39 39 39 40 40 40 40 40 40 40 40 40 40 39 38 38 40 42 45 48 49 50 51 51 52 54 57 57 55 54 52 50 48 49 53 56 57 57 56 55
42 42 43 43 43 42 42 42 42 42 42 42 42 42 42 42 42 41 41 41 42 45 47 50 52 53 54 55 57 58 58 57 54 50 46 48 53 57 59 60 59 58
Wind_Direction
282 281 281 279 276 275 277 282 287 292 295 296 297 297 296 295 293 292 293 295 296 297 297 297 295 293 290 288 285 282 279 277 276 276 276 276 276 276 275 274 274 275
285 284 283 281 278 276 277 279 282 287 290 292 294 295 295 294 293 292 291 291 290 289 290 292 294 293 291 288 286 283 281 280 278 278 277 277 277 277 277 277 277 277
286 286 285 283 280 278 277 277 279 282 286 288 291 293 295 295 294 293 292 290 288 286 286 288 291 293 292 289 285 282 280 279 278 278 277 277 277 277 277 277 277 277
283 284 284 283 281 280 277 278 279 281 284 287 293 299 301 300 298 294 290 287 286 285 285 287 290 292 292 291 288 282 278 277 277 276 276 276 277 277 277 277 277 278
280 282 281 279 278 279 277 276 276 278 282 290 301 311 313 310 306 300 293 286 283 284 285 287 289 291 292 293 290 285 279 275 275 276 276 276 276 277 277 278 278 278
276 278 279 277 275 275 276 275 274 276 278 288 305 317 320 317 313 307 301 292 286 285 286 287 289 291 292 292 292 289 282 276 274 275 277 278 278 278 278 277 278 278
276 276 277 277 275 274 275 274 275 273 271 281 302 315 320 319 315 311 307 299 293 290 290 290 291 292 292 293 293 292 286 279 276 276 278 279 280 280 279 278 277 277
279 281 280 278 275 274 273 271 272 271 270 279 297 309 316 316 314 311 309 304 300 298 298 298 299 298 296 295 296 296 291 284 279 279 279 280 281 281 280 280 278 277
282 286 285 282 277 274 271 268 269 272 274 282 293 303 310 313 310 305 302 302 303 305 307 310 311 311 307 303 301 300 298 291 286 283 283 283 283 283 282 282 281 279
278 281 279 276 274 271 268 267 271 277 279 284 291 298 304 308 307 302 295 295 300 303 308 313 316 318 318 315 310 306 302 299 295 292 290 288 287 286 285 284 283 282
259 261 260 261 264 267 268 270 276 284 287 287 290 295 301 304 304 302 294 289 292 297 301 307 312 315 318 319 319 315 310 305 302 299 297 295 294 293 291 290 288 286
254 252 253 256 260 264 268 270 277 285 287 288 289 292 299 302 302 302 297 287 285 290 296 302 307 311 313 314 316 317 316 314 311 308 304 301 299 298 297 296 295 292
256 253 255 258 261 263 265 268 273 277 278 280 283 286 292 296 297 299 299 291 284 287 293 299 304 308 309 309 309 311 313 315 316 316 313 309 306 303 301 300 299 297
256 255 255 257 260 262 264 266 268 271 271 272 276 280 285 289 291 292 294 292 289 289 291 295 298 302 304 305 305 306 308 310 313 315 315 313 311 309 306 304 302 300
257 257 256 256 256 258 262 265 267 269 271 272 273 276 280 282 284 285 286 287 288 287 287 289 292 295 298 301 302 302 303 305 308 310 310 310 309 308 307 305 303 301
260 261 260 258 258 259 262 267 271 274 274 274 272 272 273 276 278 279 279 279 280 280 281 284 288 291 293 296 298 298 299 301 303 305 305 305 305 305 306 305 302 299
262 262 262 262 262 264 265 268 272 274 275 275 273 271 270 271 273 274 275 276 275 276 278 281 285 287 289 291 293 294 294 296 299 301 301 301 302 302 303 303 301 297
265 264 264 264 264 266 267 269 271 272 273 273 272 270 268 268 271 273 273 275 276 277 279 280 282 284 285 285 287 288 289 291 295 297 297 297 298 299 299 299 299 297
266 266 266 266 267 267 268 270 271 272 273 273 272 269 266 265 268 271 271 272 274 276 276 278 280 280 280 280 282 283 284 287 291 293 294 294 294 295 296 295 294 295
264 265 265 266 267 267 268 269 271 273 274 274 272 271 266 264 265 268 270 271 271 271 271 273 275 277 277 278 280 282 283 285 288 290 290 291 291 291 292 291 290 291
266 266 267 268 269 270 270 271 273 274 275 275 274 272 268 265 263 265 269 271 271 270 270 272 273 275 277 278 279 280 281 283 285 287 288 289 288 288 289 288 287 287
270 270 271 271 272 272 273 273 274 275 276 276 276 274 271 267 263 263 265 267 268 269 270 271 273 275 277 278 279 280 281 282 283 284 284 285 286 286 286 284 283 284
270 270 271 272 272 273 273 274 275 276 276 276 276 275 274 271 267 264 263 262 262 264 267 271 274 276 277 277 277 278 279 280 279 280 281 283 284 283 282 281 282 283
272 272 272 273 274 274 274 274 274 274 274 275 275 275 274 273 271 268 265 262 261 263 266 269 271 272 273 274 275 276 277 276 275 277 280 283 283 281 280 280 280 281
276 276 276 276 277 277 276 275 274 273 272 272 272 272 272 273 273 271 270 267 264 263 263 264 266 267 268 270 272 275 274 273 273 275 277 279 280 281 281 280 279 279
277 277 278 279 279 278 277 276 275 274 273 272 271 271 270 270 270 271 271 270 268 266 264 263 263 264 266 268 271 273 274 274 275 274 271 271 273 276 277 278 278 279
Height
10688 10687 10686 10686 10686 10685 10685 10684 10683 10682 10682 10681 10680 10678 10677 10676 10675 10674 10673 10671 10670 10669 10667 10666 10665 10664 10663 10662 10661 10660 10659 10658 10658 10657 10657 10656 10656 10655 10655 10654 10654 10653
10686 10685 10684 10683 10683 10683 10683 10682 10681 10680 10679 10678 10677 10676 10675 10674 10673 10672 10671 10670 10668 10667 10666 10664 10663 10662 10660 10659 10658 10657 10656 10655 10654 10654 10653 10653 10652 10652 10651 10651 10650 10649
10683 10682 10681 10681 10680 10680 10680 10679 10679 10678 10677 10676 10675 10674 10673 10672 10671 10669 10668 10667 10666 10665 10664 10662 10661 10660 10658 10657 10655 10654 10653 10652 10652 10651 10650 10650 10649 10648 10648 10647 10646 10646
10681 10680 10679 10678 10677 10677 10676 10676 10676 10675 10674 10673 10672 10671 10670 10669 10668 10666 10665 10664 10663 10662 10661 10660 10659 10657 10656 10654 10652 10651 10650 10649 10649 10648 10647 10647 10646 10646 10645 10644 10643 10642
10678 10677 10676 10675 10675 10674 10674 10673 10673 10672 10672 10671 10670 10669 10667 10666 10665 10663 10662 10661 10660 10659 10658 10657 10656 10655 10653 10651 10650 10648 10647 10646 10645 10645 10644 10643 10643 10642 10642 10641 10640 10639
10676 10675 10674 10673 10673 10672 10671 10671 10670 10670 10669 10669 10668 10666 10665 10663 10662 10660 10659 10657 10657 10656 10655 10654 10653 10652 10650 10648 10647 10645 10643 10642 10641 10641 10641 10640 10639 10639 10638 10637 10637 10636
10673 10672 10672 10671 10671 10670 10669 10669 10668 10668 10667 10666 10665 10663 10662 10660 10659 10657 10656 10654 10654 10653 10652 10651 10650 10649 10647 10645 10643 10642 10640 10639 10638 10637 10637 10636 10635 10635 10634 10633 10632 10632
10671 10671 10670 10669 10669 10668 10667 10666 10666 10665 10664 10663 10662 10661 10660 10658 10656 10655 10653 10652 10651 10650 10649 10648 10647 10645 10644 10642 10641 10639 10637 10636 10635 10634 10633 10632 10631 10631 10630 10629 10628 10628
10670 10670 10668 10667 10667 10666 10664 10663 10662 10662 10661 10660 10660 10659 10657 10656 10654 10653 10651 10650 10649 10648 10646 10645 10644 10642 10641 10639 10638 10636 10635 10634 10632 10631 10630 10629 10628 10627 10626 10625 10624 10623
10669 10668 10666 10664 10663 10662 10661 10661 10660 10659 10659 10658 10657 10656 10655 10653 10652 10651 10649 10648 10647 10645 10644 10642 10641 10639 10638 10637 10635 10634 10633 10631 10630 10629 10628 10626 10625 10624 10622 10621 10620 10620
10665 10663 10660 10659 10659 10658 10658 10658 10657 10657 10656 10655 10654 10653 10651 10650 10649 10648 10646 10645 10644 10643 10641 10640 10638 10637 10636 10634 10633 10631 10630 10629 10628 10626 10625 10624 10622 10621 10619 10618 10617 10616
10660 10658 10655 10655 10656 10655 10655 10654 10654 10654 10652 10651 10650 10649 10648 10647 10645 10644 10643 10642 10641 10640 10638 10637 10636 10634 10633 10632 10631 10629 10627 10626 10624 10623 10622 10620 10619 10617 10616 10614 10613 10612
10655 10654 10653 10652 10651 10651 10651 10650 10650 10650 10648 10647 10646 10645 10644 10644 10642 10641 10640 10639 10638 10636 10635 10634 10632 10631 10631 10629 10628 10626 10624 10623 10621 10620 10618 10617 10615 10614 10612 10611 10609 10608
10649 10649 10648 10648 10647 10646 10646 10645 10646 10645 10643 10643 10642 10641 10640 10640 10639 10638 10637 10635 10634 10633 10632 10630 10629 10628 10627 10626 10625 10623 10622 10620 10618 10617 10615 10614 10612 10611 10609 10607 10606 10605
10644 10644 10643 10643 10642 10642 10641 10640 10641 10640 10639 10638 10638 10638 10637 10636 10636 10635 10633 10632 10631 10629 10628 10626 10625 10624 10624 10623 10621 10620 10619 10617 10615 10614 10612 10610 10609 10607 10606 10604 10602 10601
10640 10640 10639 10638 10638 10637 10636 10635 10634 10634 10633 10633 10633 10633 10633 10632 10632 10631 10629 10628 10627 10625 10623 10622 10621 10620 10620 10619 10617 10616 10615 10613 10612 10610 10608 10607 10605 10603 10602 10600 10598 10597
10636 10635 10634 10633 10632 10631 10631 10630 10629 10628 10627 10627 10628 10628 10628 10627 10627 10626 10624 10623 10622 10620 10619 10617 10617 10616 10615 10614 10613 10612 10610 10609 10608 10606 10604 10603 10601 10599 10598 10596 10594 10593
10630 10630 10629 10628 10627 10626 10626 10625 10624 10623 10622 10621 10622 10622 10622 10622 10621 10620 10619 10618 10617 10616 10614 10613 10611 10611 10610 10609 10608 10607 10606 10605 10603 10601 10600 10598 10596 10595 10593 10592 10590 10589
10625 10625 10624 10623 10622 10622 10621 10620 10619 10618 10616 10616 10616 10615 10616 10616 10615 10614 10613 10612 10612 10611 10609 10608 10606 10605 10604 10604 10603 10602 10601 10600 10599 10596 10594 10593 10591 10590 10588 10587 10585 10584
10620 10620 10619 10618 10618 10617 10616 10615 10614 10613 10612 10610 10610 10609 10609 10610 10609 10608 10607 10607 10607 10605 10603 10602 10600 10598 10598 10598 10597 10597 10596 10595 10594 10591 10589 10587 10586 10584 10582 10581 10580 10579
10616 10616 10615 10614 10613 10612 10611 10610 10609 10608 10607 10605 10604 10603 10603 10603 10603 10603 10602 10601 10600 10598 10597 10596 10594 10592 10592 10592 10591 10591 10590 10590 10588 10586 10584 10582 10580 10578 10576 10575 10574 10573
10612 10611 10610 10609 10608 10607 10606 10605 10604 10603 10602 10600 10599 10598 10597 10596 10596 10597 10596 10595 10593 10591 10590 10590 10588 10586 10586 10586 10585 10584 10584 10583 10582 10581 10579 10577 10573 10571 10570 10569 10567 10566
10607 10606 10605 10604 10603 10602 10601 10600 10599 10598 10596 10595 10593 10592 10591 10589 10589 10589 10589 10588 10586 10584 10583 10583 10582 10580 10580 10579 10577 10577 10577 10577 10576 10575 10573 10571 10568 10564 10563 10562 10561 10559
10601 10600 10600 10598 10597 10596 10595 10594 10593 10592 10590 10588 10587 10586 10584 10583 10582 10582 10581 10581 10579 10577 10577 10576 10575 10574 10573 10571 10570 10570 10570 10569 10569 10569 10567 10564 10561 10557 10556 10556 10554 10552
10594 10593 10593 10592 10591 10589 10588 10587 10586 10585 10584 10582 10581 10579 10578 10577 10576 10575 10573 10573 10572 10571 10571 10570 10569 10567 10566 10564 10562 10562 10562 10561 10561 10562 10561 10558 10554 10551 10549 10548 10547 10545
10588 10586 10585 10584 10583 10582 10581 10580 10579 10578 10577 10575 10574 10573 10572 10571 10570 10569 10567 10566 10565 10565 10564 10563 10562 10560 10559 10558 10556 10554 10553 10552 10552 10554 10553 10550 10547 10544 10542 10540 10539 10538